Flag for Finland Weather past 2 weeks in Vantaa, Finland

36 °F

Passing clouds.

Feels Like: 27 °F
Forecast: 39 / 45 °F
Wind: 13 mph from South

Location: Helsinki-Vantaa

Current Time: Nov 26, 2015 at 5:58:51 AM

Latest Report: Nov 26, 2015 at 5:20 AM

Visibility: N/A

Pressure: 29.74 "Hg

Humidity: 81%

Dew point: 30 °F

Location of VantaaLocation

Historic Weather in Vantaa — Graph


Vantaa temperature yesterday

Maximum temperature yesterday: 41 °F (at 2:20 AM)
Minimum temperature yesterday: 37 °F (at 9:20 PM)
Average temperature yesterday: 40 °F

Past Weeks' High & Low Weather Summary

High46 °F (Nov 14, 7:20 AM)100% (Nov 11, 4:20 AM)30.01 "Hg (Nov 11, 4:20 AM)
Low19 °F (Nov 23, 11:20 PM)64% (Nov 23, 2:20 PM)29.06 "Hg (Nov 21, 12:20 AM)
Average38 °F94%29.53 "Hg
* Reported Nov 11 4:20 AM — Nov 26 4:50 AM, Vantaa, Weather by CustomWeather, © 2015

Note: Actual official high and low records may vary slightly from our data, if they occured in-between our weather recording intervals... More about our weather records


Vantaa weather history for previous 24 hours

Time TempWeatherWind HumidityBarometerVisibility
4:50 AM
Thu, Nov 26
36 °FPartly cloudy.14 mph81%29.74 "HgN/A
4:20 AM36 °FPartly cloudy.18 mph81%29.74 "HgN/A
3:50 AM36 °FPassing clouds.16 mph81%29.74 "HgN/A
3:20 AM36 °FPassing clouds.15 mph81%29.74 "HgN/A
2:20 AM36 °FPassing clouds.16 mph81%29.74 "HgN/A
1:50 AM36 °FPassing clouds.18 mph81%29.74 "HgN/A
1:20 AM36 °FPassing clouds.16 mph87%29.74 "HgN/A
12:50 AM37 °FPassing clouds.18 mph81%29.74 "HgN/A
12:20 AM37 °FPartly cloudy.17 mph81%29.74 "HgN/A
11:50 PM
Wed, Nov 25
37 °FPassing clouds.17 mph75%29.74 "HgN/A
10:50 PM37 °FPassing clouds.18 mph75%29.74 "HgN/A
10:20 PM37 °FPassing clouds.18 mph81%29.74 "HgN/A
9:50 PM37 °FPartly cloudy.17 mph75%29.74 "HgN/A
9:20 PM37 °FPassing clouds.17 mph81%29.71 "HgN/A
8:50 PM39 °FPartly cloudy.18 mph75%29.71 "HgN/A
8:20 PM39 °FPassing clouds.18 mph75%29.71 "HgN/A
7:50 PM39 °FPassing clouds.17 mph75%29.71 "HgN/A
7:20 PM39 °FPassing clouds.18 mph75%29.71 "HgN/A
6:50 PM39 °FPassing clouds.20 mph81%29.71 "HgN/A
6:20 PM39 °FPassing clouds.18 mph81%29.71 "HgN/A
5:50 PM39 °FPassing clouds.22 mph81%29.71 "HgN/A
5:20 PM39 °FPartly cloudy.21 mph87%29.68 "HgN/A
4:50 PM41 °FPassing clouds.17 mph81%29.68 "HgN/A
4:20 PM41 °FPassing clouds.20 mph81%29.68 "HgN/A
3:50 PM41 °FLight rain. Passing clouds.17 mph81%29.68 "HgN/A
3:20 PM41 °FPartly sunny.20 mph81%29.68 "HgN/A
2:50 PM41 °FPartly sunny.20 mph81%29.68 "HgN/A
2:20 PM41 °FPartly sunny.20 mph81%29.68 "HgN/A
1:50 PM41 °FPartly sunny.20 mph81%29.68 "HgN/A
1:20 PM41 °FLight rain. Partly sunny.20 mph87%29.68 "HgN/A
12:50 PM41 °FLight rain. Partly sunny.21 mph87%29.68 "HgN/A
12:20 PM41 °FPartly sunny.21 mph87%29.68 "HgN/A
11:50 AM41 °FLight rain. Partly sunny.17 mph87%29.68 "HgN/A
11:20 AM41 °FLight rain. Partly sunny.16 mph87%29.68 "HgN/A
10:50 AM41 °FLight rain. Partly sunny.20 mph87%29.68 "HgN/A
10:20 AM41 °FPartly sunny.17 mph87%29.68 "HgN/A
9:50 AM41 °FPartly sunny.16 mph81%29.68 "HgN/A
9:20 AM41 °FBroken clouds.16 mph81%29.68 "HgN/A
8:50 AM41 °FPartly sunny.17 mph87%29.68 "HgN/A
8:20 AM41 °FPassing clouds.18 mph87%29.68 "HgN/A
7:50 AM41 °FSprinkles. Passing clouds.17 mph87%29.68 "HgN/A
7:20 AM41 °FSprinkles. Passing clouds.16 mph87%29.68 "HgN/A
6:50 AM41 °FSprinkles. Passing clouds.16 mph93%29.68 "HgN/A
6:20 AM41 °FPassing clouds.16 mph93%29.68 "HgN/A
5:20 AM41 °FSprinkles. Passing clouds.15 mph93%29.68 "HgN/A
Weather by CustomWeather, © 2015

See weather overviewHow to use our weather pages